NUSAT-19 (ROSALIND) (48905 NORAD) Tracking and Keplerian Element Data

This shows tracking and keplerian element data for the satellite.

Feedback or suggestion? Click here.




ElementValue
Catalog48905
NameNUSAT-19 (ROSALIND)
Epoch Orbit1397
Epoch Day269.12640426
Epoch Year2021
RAAN36.5918
Inclination97.4766
Eccentricity0.0009242
Argument of Perigee275.0494
Mean Anonmoly206.7423
Mean Motion15.16886626
Decay Rate1.566E-05
L11 48905U 21059AC 21269.12640426 .00001566 00000-0 82863-4 0 9997
L22 48905 97.4766 36.5918 0009242 275.0494 206.7423 15.16886626 13970

Live tracking and technical data element details for NUSAT-19 (ROSALIND) (NORAD 48905). NUSAT-19 (ROSALIND) can be tracked NOW for your location showing map with azimuth and elevation plus other details from your city location.

Track the satellite on the map from your city or location and see movement details for azimuth, elevation, latitude, longitude, range, height, and movement on the map or in text.







IsCatalogInMostPopularTable: catalog: 48905, numindb: 16
Update: records affected: 1



GetName: 48905 NUSAT-19 (ROSALIND)

Hit Count: updated at: Sun, 26 Sep 2021 16:25:44 GMT